Location: Bothwell
(42.3833°S, 147.0000°E)
Time: 00:03:10
(UTC+11:00)

Gurwin Techsat 1B - Visible Passes

Search period start: 05 December 2023 00:00
Search period end: 15 December 2023 00:00
Orbit: 811 x 813 km, 98.9° (Epoch: 03 December)

Date Brightness Start Highest point End Pass type
(mag) Time Alt. Az. Time Alt. Az. Time Alt. Az.
05 Dec 9.8 02:53:42 10° NE 02:58:42 42° ESE 03:03:45 10° S visible
05 Dec 9.7 04:34:16 10° NNW 04:38:42 26° W 04:43:12 10° SW visible
06 Dec 10.5 02:31:20 10° ENE 02:35:46 27° ESE 02:40:14 10° S visible
06 Dec 9.1 04:10:35 11° NNW 04:15:25 42° W 04:20:32 10° SSW visible
07 Dec 11.1 02:09:25 10° E 02:12:55 18° ESE 02:16:25 10° SSE visible
07 Dec 8.6 03:47:10 11° N 03:52:13 68° WNW 03:57:37 10° SSW visible
08 Dec 11.4 01:48:28 10° ESE 01:50:08 11° SE 01:51:48 10° SE visible
08 Dec 8.8 03:23:45 10° NNE 03:29:06 76° ESE 03:34:30 10° S visible
09 Dec 9.5 03:00:56 10° NE 03:06:02 48° ESE 03:11:13 10° S visible
09 Dec 9.9 04:41:59 10° NW 04:46:09 23° W 04:50:22 10° SW visible
10 Dec 10.3 02:38:27 10° NE 02:43:05 31° ESE 02:47:45 10° S visible
10 Dec 9.3 04:18:01 10° NNW 04:22:51 36° W 04:27:49 10° SSW visible
11 Dec 10.9 02:16:23 10° ENE 02:20:12 20° ESE 02:24:02 10° SSE visible
11 Dec 8.7 03:54:35 11° N 03:59:36 59° WNW 04:04:57 10° SSW visible
12 Dec 11.3 01:55:00 10° E 01:57:24 13° ESE 01:59:49 10° SSE visible
12 Dec 8.6 03:31:09 10° NNE 03:36:28 87° ESE 03:41:53 10° SSW visible
13 Dec 9.3 03:08:11 10° NNE 03:13:24 55° ESE 03:18:39 10° S visible
13 Dec 10.0 04:49:46 10° NW 04:53:36 20° W 04:57:29 10° SW visible
14 Dec 10.1 02:45:36 10° NE 02:50:24 35° ESE 02:55:15 10° S visible
14 Dec 9.4 04:25:32 10° NNW 04:30:16 32° W 04:35:03 10° SW visible
